When you browse on this site, cookies collect data to enhance your experience and personalize the content and advertising you see.
Visit our Privacy Policy to learn more. By continuing to use the site, you agree to this use of cookies and data.
  • In Hungary
  • List of Countries
  • For 7 days
  • Water Temperature
  • Weather Map
  • News
  • Weather Widgets
  • user-avatar
    Login

    Hourly Weather Sosedkova

    Today, 18 January, Saturday

    Time Temperature Precipitation Wind Pressure Humidity
    00:00 -13°C° 0 mm 1 mps 744 mmHg 89%
    01:00 -16°C° 0 mm 2 mps 744 mmHg 91%
    02:00 -16°C° 0 mm 2 mps 744 mmHg 92%
    03:00 -16°C° 0 mm 2 mps 744 mmHg 92%
    04:00 -15°C° 0 mm 2 mps 744 mmHg 91%
    05:00 -15°C° 0 mm 2 mps 743 mmHg 89%
    06:00 -15°C° 0 mm 2 mps 743 mmHg 88%
    07:00 -14°C° 0 mm 2 mps 742 mmHg 86%
    08:00 -13°C° 0 mm 3 mps 742 mmHg 86%
    09:00 -11°C° 0 mm 4 mps 741 mmHg 87%
    10:00 -8°C° 0 mm 4 mps 741 mmHg 87%
    11:00 -7°C° 0 mm 5 mps 740 mmHg 86%
    12:00 -6°C° 0 mm 5 mps 740 mmHg 84%
    13:00 -5°C° 0 mm 5 mps 739 mmHg 82%
    14:00 -5°C° 0 mm 5 mps 739 mmHg 84%
    15:00 -5°C° 0 mm 5 mps 739 mmHg 86%
    16:00 -4°C° 0 mm 4 mps 739 mmHg 88%
    17:00 -4°C° 0 mm 4 mps 740 mmHg 88%
    18:00 -5°C° 0 mm 4 mps 740 mmHg 89%
    19:00 -5°C° 0 mm 4 mps 740 mmHg 89%
    20:00 -6°C° 0 mm 3 mps 741 mmHg 90%
    21:00 -7°C° 0 mm 3 mps 742 mmHg 91%
    22:00 -8°C° 0 mm 3 mps 743 mmHg 92%
    23:00 -9°C° 0 mm 2 mps 743 mmHg 92%

    Tomorrow, 19 January, Sunday

    Time Temperature Precipitation Wind Pressure Humidity
    00:00 -9°C° 0 mm 1 mps 743 mmHg 91%
    01:00 -10°C° 0 mm 1 mps 744 mmHg 91%
    02:00 -11°C° 0 mm 1 mps 744 mmHg 92%
    03:00 -12°C° 0 mm 1 mps 744 mmHg 93%
    04:00 -13°C° 0 mm 1 mps 745 mmHg 93%
    05:00 -13°C° 0 mm 1 mps 745 mmHg 92%
    06:00 -13°C° 0 mm 1 mps 745 mmHg 91%
    07:00 -16°C° 0 mm 2 mps 745 mmHg 90%
    08:00 -16°C° 0 mm 2 mps 745 mmHg 88%
    09:00 -15°C° 0 mm 2 mps 745 mmHg 87%
    10:00 -15°C° 0 mm 2 mps 746 mmHg 85%
    11:00 -12°C° 0 mm 1 mps 745 mmHg 84%
    12:00 -11°C° 0 mm 1 mps 745 mmHg 82%
    13:00 -9°C° 0 mm 1 mps 745 mmHg 81%
    14:00 -10°C° 0 mm 1 mps 745 mmHg 83%
    15:00 -10°C° 0 mm 0 mps 745 mmHg 86%
    16:00 -10°C° 0 mm 0 mps 745 mmHg 88%
    17:00 -10°C° 0.1 mm 0 mps 745 mmHg 90%
    18:00 -10°C° 0.1 mm 1 mps 745 mmHg 92%
    19:00 -10°C° 0.1 mm 1 mps 745 mmHg 94%
    20:00 -10°C° 0.3 mm 1 mps 744 mmHg 94%
    21:00 -12°C° 0.3 mm 2 mps 744 mmHg 94%
    22:00 -12°C° 0.3 mm 2 mps 744 mmHg 95%
    23:00 -12°C° 0.2 mm 2 mps 744 mmHg 95%

    Day after tomorrow, 20 January, Monday

    Time Temperature Precipitation Wind Pressure Humidity
    00:00 -12°C° 0.2 mm 2 mps 743 mmHg 95%
    01:00 -12°C° 0.2 mm 2 mps 743 mmHg 95%
    02:00 -12°C° 0.3 mm 2 mps 742 mmHg 94%
    03:00 -12°C° 0.3 mm 2 mps 742 mmHg 94%
    04:00 -13°C° 0.3 mm 3 mps 742 mmHg 94%
    05:00 -12°C° 0.3 mm 2 mps 741 mmHg 94%
    06:00 -12°C° 0.3 mm 2 mps 741 mmHg 94%
    07:00 -13°C° 0.3 mm 2 mps 740 mmHg 94%
    08:00 -13°C° 0.3 mm 2 mps 740 mmHg 94%
    09:00 -13°C° 0.3 mm 2 mps 740 mmHg 94%
    10:00 -14°C° 0.3 mm 2 mps 740 mmHg 94%
    11:00 -13°C° 0.2 mm 2 mps 740 mmHg 93%
    12:00 -13°C° 0.2 mm 2 mps 740 mmHg 93%
    13:00 -13°C° 0.2 mm 2 mps 740 mmHg 92%
    14:00 -14°C° 0 mm 2 mps 740 mmHg 93%
    15:00 -15°C° 0 mm 2 mps 740 mmHg 95%
    16:00 -15°C° 0 mm 2 mps 741 mmHg 96%
    17:00 -14°C° 0 mm 1 mps 741 mmHg 97%
    18:00 -15°C° 0 mm 1 mps 741 mmHg 97%
    19:00 -16°C° 0 mm 1 mps 741 mmHg 98%
    20:00 -17°C° 0 mm 1 mps 741 mmHg 98%
    21:00 -17°C° 0 mm 1 mps 741 mmHg 98%
    22:00 -18°C° 0 mm 1 mps 742 mmHg 98%
    23:00 -18°C° 0 mm 1 mps 741 mmHg 99%

    21 January, Tuesday

    Time Temperature Precipitation Wind Pressure Humidity
    00:00 -19°C° 0 mm 1 mps 741 mmHg 99%
    01:00 -19°C° 0 mm 0 mps 741 mmHg 99%
    02:00 -19°C° 0 mm 0 mps 741 mmHg 99%
    03:00 -19°C° 0 mm 1 mps 741 mmHg 99%
    04:00 -20°C° 0 mm 1 mps 741 mmHg 99%
    05:00 -20°C° 0 mm 1 mps 741 mmHg 99%
    06:00 -20°C° 0 mm 1 mps 741 mmHg 99%
    07:00 -20°C° 0 mm 1 mps 740 mmHg 99%
    08:00 -21°C° 0 mm 2 mps 740 mmHg 98%
    09:00 -20°C° 0 mm 2 mps 740 mmHg 97%
    10:00 -19°C° 0 mm 2 mps 740 mmHg 96%
    11:00 -18°C° 0 mm 3 mps 740 mmHg 94%
    12:00 -17°C° 0 mm 3 mps 739 mmHg 93%
    13:00 -16°C° 0 mm 3 mps 738 mmHg 91%
    14:00 -16°C° 0 mm 3 mps 738 mmHg 92%
    15:00 -16°C° 0 mm 3 mps 737 mmHg 92%
    16:00 -17°C° 0 mm 3 mps 737 mmHg 93%
    17:00 -17°C° 0 mm 3 mps 736 mmHg 93%
    18:00 -17°C° 0 mm 3 mps 736 mmHg 94%
    19:00 -18°C° 0 mm 4 mps 735 mmHg 94%
    20:00 -18°C° 0 mm 4 mps 734 mmHg 94%
    21:00 -18°C° 0 mm 4 mps 733 mmHg 94%
    22:00 -17°C° 0 mm 4 mps 733 mmHg 94%
    23:00 -17°C° 0 mm 4 mps 732 mmHg 93%

    22 January, Wednesday

    Time Temperature Precipitation Wind Pressure Humidity
    00:00 -16°C° 0 mm 4 mps 731 mmHg 93%
    01:00 -15°C° 0 mm 4 mps 730 mmHg 93%
    02:00 -15°C° 0 mm 5 mps 729 mmHg 92%
    03:00 -14°C° 0 mm 5 mps 728 mmHg 91%
    04:00 -13°C° 0 mm 5 mps 727 mmHg 90%
    05:00 -12°C° 0 mm 5 mps 726 mmHg 90%
    06:00 -12°C° 0 mm 5 mps 725 mmHg 90%
    07:00 -11°C° 0 mm 5 mps 724 mmHg 89%
    08:00 -11°C° 0.1 mm 5 mps 724 mmHg 90%
    09:00 -10°C° 0.1 mm 5 mps 723 mmHg 90%
    10:00 -10°C° 0.1 mm 5 mps 722 mmHg 90%
    11:00 -10°C° 0.2 mm 5 mps 722 mmHg 90%
    12:00 -8°C° 0.2 mm 5 mps 721 mmHg 90%
    13:00 -8°C° 0.2 mm 5 mps 721 mmHg 89%
    14:00 -8°C° 0 mm 4 mps 720 mmHg 89%
    15:00 -8°C° 0 mm 3 mps 720 mmHg 89%
    16:00 -8°C° 0 mm 3 mps 720 mmHg 90%
    17:00 -8°C° 0 mm 3 mps 719 mmHg 90%
    18:00 -9°C° 0 mm 3 mps 719 mmHg 91%
    19:00 -9°C° 0 mm 3 mps 719 mmHg 92%
    20:00 -9°C° 0 mm 3 mps 718 mmHg 93%
    21:00 -7°C° 0 mm 2 mps 718 mmHg 93%
    22:00 -7°C° 0 mm 2 mps 717 mmHg 94%
    23:00 -8°C° 0.3 mm 3 mps 717 mmHg 94%

    23 January, Thursday

    Time Temperature Precipitation Wind Pressure Humidity
    00:00 -8°C° 0.3 mm 3 mps 716 mmHg 95%
    01:00 -7°C° 0.3 mm 3 mps 715 mmHg 95%
    02:00 -7°C° 0.3 mm 3 mps 715 mmHg 95%
    03:00 -7°C° 0.3 mm 3 mps 714 mmHg 95%
    04:00 -7°C° 0.3 mm 3 mps 713 mmHg 95%
    05:00 -7°C° 0.3 mm 3 mps 713 mmHg 95%
    06:00 -7°C° 0.3 mm 3 mps 712 mmHg 95%
    07:00 -6°C° 0.3 mm 2 mps 711 mmHg 95%
    08:00 -6°C° 0.5 mm 2 mps 711 mmHg 95%
    09:00 -6°C° 0.5 mm 2 mps 711 mmHg 94%
    10:00 -5°C° 0.5 mm 2 mps 710 mmHg 94%
    11:00 -6°C° 0.4 mm 3 mps 711 mmHg 94%
    12:00 -6°C° 0.4 mm 3 mps 712 mmHg 94%
    13:00 -7°C° 0.4 mm 4 mps 712 mmHg 94%
    14:00 -8°C° 0.3 mm 5 mps 714 mmHg 92%
    15:00 -10°C° 0.3 mm 5 mps 715 mmHg 90%
    16:00 -10°C° 0.3 mm 6 mps 716 mmHg 88%
    17:00 -11°C° 0 mm 6 mps 717 mmHg 87%
    18:00 -12°C° 0 mm 6 mps 718 mmHg 86%
    19:00 -14°C° 0 mm 5 mps 720 mmHg 86%
    20:00 -14°C° 0 mm 5 mps 720 mmHg 87%
    21:00 -15°C° 0 mm 4 mps 721 mmHg 88%
    22:00 -15°C° 0 mm 3 mps 722 mmHg 90%
    23:00 -15°C° 0 mm 3 mps 722 mmHg 90%
    Show more